Year,Month,Day,Hour,Minute,Value (Times are PST for temperature in C)
2019,01,29,00,00,3.20
2019,01,29,00,01,3.20
2019,01,29,00,02,3.20
2019,01,29,00,03,3.20
2019,01,29,00,04,3.20
2019,01,29,00,05,3.20
2019,01,29,00,06,3.20
2019,01,29,00,07,3.10
2019,01,29,00,08,3.10
2019,01,29,00,09,3.10
2019,01,29,00,10,3.10
2019,01,29,00,11,3.10
2019,01,29,00,12,3.10
2019,01,29,00,13,3.10
2019,01,29,00,14,3.10
2019,01,29,00,15,3.10
2019,01,29,00,16,3.10
2019,01,29,00,17,3.10
2019,01,29,00,18,3.10
2019,01,29,00,19,3.10
2019,01,29,00,20,3.00
2019,01,29,00,21,3.00
2019,01,29,00,22,3.10
2019,01,29,00,23,3.00
2019,01,29,00,24,3.00
2019,01,29,00,25,3.10
2019,01,29,00,26,3.10
2019,01,29,00,27,3.10
2019,01,29,00,28,3.10
2019,01,29,00,29,3.10
2019,01,29,00,30,3.10
2019,01,29,00,31,3.10
2019,01,29,00,32,3.10
2019,01,29,00,33,3.10
2019,01,29,00,34,3.10
2019,01,29,00,35,3.10
2019,01,29,00,36,3.10
2019,01,29,00,37,3.10
2019,01,29,00,38,3.10
2019,01,29,00,39,3.20
2019,01,29,00,40,3.20
2019,01,29,00,41,3.20
2019,01,29,00,42,3.20
2019,01,29,00,43,3.20
2019,01,29,00,44,3.20
2019,01,29,00,45,3.20
2019,01,29,00,46,3.20
2019,01,29,00,47,3.20
2019,01,29,00,48,3.20
2019,01,29,00,49,3.20
2019,01,29,00,50,3.20
2019,01,29,00,51,3.20
2019,01,29,00,52,3.20
2019,01,29,00,53,3.20
2019,01,29,00,54,3.20
2019,01,29,00,55,3.20
2019,01,29,00,56,3.20
2019,01,29,00,57,3.20
2019,01,29,00,58,3.20
2019,01,29,00,59,3.20
2019,01,29,01,00,3.10
2019,01,29,01,01,3.10
2019,01,29,01,02,3.10
2019,01,29,01,03,3.10
2019,01,29,01,04,3.10
2019,01,29,01,05,3.10
2019,01,29,01,06,3.10
2019,01,29,01,07,3.10
2019,01,29,01,08,3.00
2019,01,29,01,09,3.10
2019,01,29,01,10,3.10
2019,01,29,01,11,3.10
2019,01,29,01,12,3.10
2019,01,29,01,13,3.10
2019,01,29,01,14,3.10
2019,01,29,01,15,3.10
2019,01,29,01,16,3.10
2019,01,29,01,17,3.10
2019,01,29,01,18,3.10
2019,01,29,01,19,3.10
2019,01,29,01,20,3.10
2019,01,29,01,21,3.10
2019,01,29,01,22,3.10
2019,01,29,01,23,3.10
2019,01,29,01,24,3.10
2019,01,29,01,25,3.10
2019,01,29,01,26,3.10
2019,01,29,01,27,3.10
2019,01,29,01,28,3.10
2019,01,29,01,29,3.10
2019,01,29,01,30,3.10
2019,01,29,01,31,3.10
2019,01,29,01,32,3.10
2019,01,29,01,33,3.10
2019,01,29,01,34,3.10
2019,01,29,01,35,3.10
2019,01,29,01,36,3.20
2019,01,29,01,37,3.20
2019,01,29,01,38,3.20
2019,01,29,01,39,3.20
2019,01,29,01,40,3.20
2019,01,29,01,41,3.20
2019,01,29,01,42,3.20
2019,01,29,01,43,3.10
2019,01,29,01,44,3.10
2019,01,29,01,45,3.10
2019,01,29,01,46,3.10
2019,01,29,01,47,3.10
2019,01,29,01,48,3.10
2019,01,29,01,49,3.10
2019,01,29,01,50,3.10
2019,01,29,01,51,3.10
2019,01,29,01,52,3.10
2019,01,29,01,53,3.00
2019,01,29,01,54,3.00
2019,01,29,01,55,3.00
2019,01,29,01,56,3.00
2019,01,29,01,57,3.00
2019,01,29,01,58,2.90
2019,01,29,01,59,2.90
2019,01,29,02,00,2.90
2019,01,29,02,01,2.90
2019,01,29,02,02,2.90
2019,01,29,02,03,2.90
2019,01,29,02,04,2.90
2019,01,29,02,05,2.90
2019,01,29,02,06,2.90
2019,01,29,02,07,2.90
2019,01,29,02,08,2.80
2019,01,29,02,09,2.80
2019,01,29,02,10,2.80
2019,01,29,02,11,2.80
2019,01,29,02,12,2.80
2019,01,29,02,13,2.80
2019,01,29,02,14,2.80
2019,01,29,02,15,2.80
2019,01,29,02,16,2.80
2019,01,29,02,17,2.70
2019,01,29,02,18,2.70
2019,01,29,02,19,2.70
2019,01,29,02,20,2.70
2019,01,29,02,21,2.70
2019,01,29,02,22,2.70
2019,01,29,02,23,2.70
2019,01,29,02,24,2.70
2019,01,29,02,25,2.70
2019,01,29,02,26,2.60
2019,01,29,02,27,2.60
2019,01,29,02,28,2.60
2019,01,29,02,29,2.60
2019,01,29,02,30,2.60
2019,01,29,02,31,2.60
2019,01,29,02,32,2.60
2019,01,29,02,33,2.60
2019,01,29,02,34,2.60
2019,01,29,02,35,2.60
2019,01,29,02,36,2.60
2019,01,29,02,37,2.60
2019,01,29,02,38,2.60
2019,01,29,02,39,2.60
2019,01,29,02,40,2.60
2019,01,29,02,41,2.60
2019,01,29,02,42,2.60
2019,01,29,02,43,2.60
2019,01,29,02,44,2.60
2019,01,29,02,45,2.60
2019,01,29,02,46,2.60
2019,01,29,02,47,2.60
2019,01,29,02,48,2.50
2019,01,29,02,49,2.50
2019,01,29,02,50,2.50
2019,01,29,02,51,2.50
2019,01,29,02,52,2.50
2019,01,29,02,53,2.50
2019,01,29,02,54,2.50
2019,01,29,02,55,2.40
2019,01,29,02,56,2.40
2019,01,29,02,57,2.40
2019,01,29,02,58,2.40
2019,01,29,02,59,2.40
2019,01,29,03,00,2.40
2019,01,29,03,01,2.40
2019,01,29,03,02,2.40
2019,01,29,03,03,2.40
2019,01,29,03,04,2.40
2019,01,29,03,05,2.40
2019,01,29,03,06,2.40
2019,01,29,03,07,2.40
2019,01,29,03,08,2.40
2019,01,29,03,09,2.30
2019,01,29,03,10,2.40
2019,01,29,03,11,2.40
2019,01,29,03,12,2.40
2019,01,29,03,13,2.40
2019,01,29,03,14,2.40
2019,01,29,03,15,2.40
2019,01,29,03,16,2.40
2019,01,29,03,17,2.40
2019,01,29,03,18,2.40
2019,01,29,03,19,2.40
2019,01,29,03,20,2.40
2019,01,29,03,21,2.40
2019,01,29,03,22,2.40
2019,01,29,03,23,2.30
2019,01,29,03,24,2.30
2019,01,29,03,25,2.30
2019,01,29,03,26,2.30
2019,01,29,03,27,2.30
2019,01,29,03,28,2.30
2019,01,29,03,29,2.30
2019,01,29,03,30,2.30
2019,01,29,03,31,2.30
2019,01,29,03,32,2.30
2019,01,29,03,33,2.30
2019,01,29,03,34,2.30
2019,01,29,03,35,2.30
2019,01,29,03,36,2.20
2019,01,29,03,37,2.20
2019,01,29,03,38,2.20
2019,01,29,03,39,2.20
2019,01,29,03,40,2.30
2019,01,29,03,41,2.30
2019,01,29,03,42,2.30
2019,01,29,03,43,2.30
2019,01,29,03,44,2.30
2019,01,29,03,45,2.20
2019,01,29,03,46,2.20
2019,01,29,03,47,2.20
2019,01,29,03,48,2.20
2019,01,29,03,49,2.20
2019,01,29,03,50,2.20
2019,01,29,03,51,2.20
2019,01,29,03,52,2.20
2019,01,29,03,53,2.20
2019,01,29,03,54,2.30
2019,01,29,03,55,2.20
2019,01,29,03,56,2.20
2019,01,29,03,57,2.20
2019,01,29,03,58,2.20
2019,01,29,03,59,2.20
2019,01,29,04,00,2.20
2019,01,29,04,01,2.20
2019,01,29,04,02,2.20
2019,01,29,04,03,2.20
2019,01,29,04,04,2.20
2019,01,29,04,05,2.20
2019,01,29,04,06,2.20
2019,01,29,04,07,2.20
2019,01,29,04,08,2.20
2019,01,29,04,09,2.20
2019,01,29,04,10,2.20
2019,01,29,04,11,2.20
2019,01,29,04,12,2.20
2019,01,29,04,13,2.20
2019,01,29,04,14,2.20
2019,01,29,04,15,2.20
2019,01,29,04,16,2.20
2019,01,29,04,17,2.20
2019,01,29,04,18,2.20
2019,01,29,04,19,2.20
2019,01,29,04,20,2.20
2019,01,29,04,21,2.20
2019,01,29,04,22,2.20
2019,01,29,04,23,2.20
2019,01,29,04,24,2.20
2019,01,29,04,25,2.20
2019,01,29,04,26,2.20
2019,01,29,04,27,2.20
2019,01,29,04,28,2.10
2019,01,29,04,29,2.10
2019,01,29,04,30,2.10
2019,01,29,04,31,2.10
2019,01,29,04,32,2.10
2019,01,29,04,33,2.10
2019,01,29,04,34,2.10
2019,01,29,04,35,2.10
2019,01,29,04,36,2.10
2019,01,29,04,37,2.20
2019,01,29,04,38,2.20
2019,01,29,04,39,2.20
2019,01,29,04,40,2.10
2019,01,29,04,41,2.10
2019,01,29,04,42,2.10
2019,01,29,04,43,2.10
2019,01,29,04,44,2.10
2019,01,29,04,45,2.10
2019,01,29,04,46,2.10
2019,01,29,04,47,2.10
2019,01,29,04,48,2.20
2019,01,29,04,49,2.10
2019,01,29,04,50,2.10
2019,01,29,04,51,2.20
2019,01,29,04,52,2.10
2019,01,29,04,53,2.10
2019,01,29,04,54,2.10
2019,01,29,04,55,2.10
2019,01,29,04,56,2.10
2019,01,29,04,57,2.10
2019,01,29,04,58,2.10
2019,01,29,04,59,2.10
2019,01,29,05,00,2.10
2019,01,29,05,01,2.10
2019,01,29,05,02,2.10
2019,01,29,05,03,2.10
2019,01,29,05,04,2.10
2019,01,29,05,05,2.10
2019,01,29,05,06,2.10
2019,01,29,05,07,2.10
2019,01,29,05,08,2.10
2019,01,29,05,09,2.10
2019,01,29,05,10,2.10
2019,01,29,05,11,2.10
2019,01,29,05,12,2.00
2019,01,29,05,13,2.10
2019,01,29,05,14,2.10
2019,01,29,05,15,2.10
2019,01,29,05,16,2.00
2019,01,29,05,17,2.00
2019,01,29,05,18,2.00
2019,01,29,05,19,2.00
2019,01,29,05,20,2.00
2019,01,29,05,21,2.00
2019,01,29,05,22,2.00
2019,01,29,05,23,2.00
2019,01,29,05,24,2.00
2019,01,29,05,25,2.00
2019,01,29,05,26,2.00
2019,01,29,05,27,2.00
2019,01,29,05,28,2.00
2019,01,29,05,29,2.00
2019,01,29,05,30,2.00
2019,01,29,05,31,1.90
2019,01,29,05,32,1.90
2019,01,29,05,33,1.90
2019,01,29,05,34,1.90
2019,01,29,05,35,1.90
2019,01,29,05,36,1.90
2019,01,29,05,37,1.90
2019,01,29,05,38,1.90
2019,01,29,05,39,1.90
2019,01,29,05,40,1.90
2019,01,29,05,41,1.90
2019,01,29,05,42,1.90
2019,01,29,05,43,1.90
2019,01,29,05,44,1.90
2019,01,29,05,45,1.90
2019,01,29,05,46,1.90
2019,01,29,05,47,1.80
2019,01,29,05,48,1.80
2019,01,29,05,49,1.80
2019,01,29,05,50,1.80
2019,01,29,05,51,1.80
2019,01,29,05,52,1.80
2019,01,29,05,53,1.80
2019,01,29,05,54,1.80
2019,01,29,05,55,1.80
2019,01,29,05,56,1.80
2019,01,29,05,57,1.80
2019,01,29,05,58,1.80
2019,01,29,05,59,1.80
2019,01,29,06,00,1.80
2019,01,29,06,01,1.80
2019,01,29,06,02,1.80
2019,01,29,06,03,1.80
2019,01,29,06,04,1.80
2019,01,29,06,05,1.80
2019,01,29,06,06,1.80
2019,01,29,06,07,1.80
2019,01,29,06,08,1.70
2019,01,29,06,09,1.70
2019,01,29,06,10,1.70
2019,01,29,06,11,1.60
2019,01,29,06,12,1.60
2019,01,29,06,13,1.60
2019,01,29,06,14,1.60
2019,01,29,06,15,1.60
2019,01,29,06,16,1.60
2019,01,29,06,17,1.60
2019,01,29,06,18,1.60
2019,01,29,06,19,1.60
2019,01,29,06,20,1.50
2019,01,29,06,21,1.50
2019,01,29,06,22,1.50
2019,01,29,06,23,1.50
2019,01,29,06,24,1.50
2019,01,29,06,25,1.50
2019,01,29,06,26,1.50
2019,01,29,06,27,1.50
2019,01,29,06,28,1.50
2019,01,29,06,29,1.50
2019,01,29,06,30,1.60
2019,01,29,06,31,1.60
2019,01,29,06,32,1.60
2019,01,29,06,33,1.60
2019,01,29,06,34,1.60
2019,01,29,06,35,1.60
2019,01,29,06,36,1.60
2019,01,29,06,37,1.60
2019,01,29,06,38,1.60
2019,01,29,06,39,1.60
2019,01,29,06,40,1.60
2019,01,29,06,41,1.60
2019,01,29,06,42,1.60
2019,01,29,06,43,1.60
2019,01,29,06,44,1.60
2019,01,29,06,45,1.60
2019,01,29,06,46,1.60
2019,01,29,06,47,1.70
2019,01,29,06,48,1.70
2019,01,29,06,49,1.70
2019,01,29,06,50,1.60
2019,01,29,06,51,1.70
2019,01,29,06,52,1.70
2019,01,29,06,53,1.70
2019,01,29,06,54,1.70
2019,01,29,06,55,1.70
2019,01,29,06,56,1.70
2019,01,29,06,57,1.70
2019,01,29,06,58,1.70
2019,01,29,06,59,1.70
2019,01,29,07,00,1.70
2019,01,29,07,01,1.70
2019,01,29,07,02,1.70
2019,01,29,07,03,1.70
2019,01,29,07,04,1.70
2019,01,29,07,05,1.70
2019,01,29,07,06,1.70
2019,01,29,07,07,1.70
2019,01,29,07,08,1.70
2019,01,29,07,09,1.70
2019,01,29,07,10,1.70
2019,01,29,07,11,1.60
2019,01,29,07,12,1.60
2019,01,29,07,13,1.60
2019,01,29,07,14,1.60
2019,01,29,07,15,1.60
2019,01,29,07,16,1.60
2019,01,29,07,17,1.60
2019,01,29,07,18,1.60
2019,01,29,07,19,1.60
2019,01,29,07,20,1.60
2019,01,29,07,21,1.60
2019,01,29,07,22,1.50
2019,01,29,07,23,1.60
2019,01,29,07,24,1.60
2019,01,29,07,25,1.50
2019,01,29,07,26,1.50
2019,01,29,07,27,1.50
2019,01,29,07,28,1.50
2019,01,29,07,29,1.50
2019,01,29,07,30,1.50
2019,01,29,07,31,1.50
2019,01,29,07,32,1.50
2019,01,29,07,33,1.50
2019,01,29,07,34,1.50
2019,01,29,07,35,1.50
2019,01,29,07,36,1.50
2019,01,29,07,37,1.50
2019,01,29,07,38,1.50
2019,01,29,07,39,1.50
2019,01,29,07,40,1.50
2019,01,29,07,41,1.50
2019,01,29,07,42,1.60
2019,01,29,07,43,1.50
2019,01,29,07,44,1.60
2019,01,29,07,45,1.60
2019,01,29,07,46,1.60
2019,01,29,07,47,1.60
2019,01,29,07,48,1.60
2019,01,29,07,49,1.60
2019,01,29,07,50,1.60
2019,01,29,07,51,1.60
2019,01,29,07,52,1.60
2019,01,29,07,53,1.60
2019,01,29,07,54,1.60
2019,01,29,07,55,1.60
2019,01,29,07,56,1.60
2019,01,29,07,57,1.60
2019,01,29,07,58,1.60
2019,01,29,07,59,1.60
2019,01,29,08,00,1.70
2019,01,29,08,01,1.70
2019,01,29,08,02,1.70
2019,01,29,08,03,1.70
2019,01,29,08,04,1.70
2019,01,29,08,05,1.70
2019,01,29,08,06,1.70
2019,01,29,08,07,1.70
2019,01,29,08,08,1.70
2019,01,29,08,09,1.70
2019,01,29,08,10,1.70
2019,01,29,08,11,1.70
2019,01,29,08,12,1.70
2019,01,29,08,13,1.70
2019,01,29,08,14,1.70
2019,01,29,08,15,1.70
2019,01,29,08,16,1.70
2019,01,29,08,17,1.70
2019,01,29,08,18,1.70
2019,01,29,08,19,1.70
2019,01,29,08,20,1.70
2019,01,29,08,21,1.70
2019,01,29,08,22,1.70
2019,01,29,08,23,1.70
2019,01,29,08,24,1.70
2019,01,29,08,25,1.70
2019,01,29,08,26,1.80
2019,01,29,08,27,1.70
2019,01,29,08,28,1.80
2019,01,29,08,29,1.80
2019,01,29,08,30,1.80
2019,01,29,08,31,1.80
2019,01,29,08,32,1.80
2019,01,29,08,33,1.80
2019,01,29,08,34,1.80
2019,01,29,08,35,1.80
2019,01,29,08,36,1.80
2019,01,29,08,37,1.80
2019,01,29,08,38,1.80
2019,01,29,08,39,1.80
2019,01,29,08,40,1.80
2019,01,29,08,41,1.80
2019,01,29,08,42,1.90
2019,01,29,08,43,1.90
2019,01,29,08,44,1.90
2019,01,29,08,45,1.90
2019,01,29,08,46,1.90
2019,01,29,08,47,1.90
2019,01,29,08,48,1.90
2019,01,29,08,49,1.90
2019,01,29,08,50,1.90
2019,01,29,08,51,1.90
2019,01,29,08,52,1.90
2019,01,29,08,53,1.90
2019,01,29,08,54,1.90
2019,01,29,08,55,1.90
2019,01,29,08,56,1.90
2019,01,29,08,57,1.90
2019,01,29,08,58,1.90
2019,01,29,08,59,1.90
2019,01,29,09,00,1.90
2019,01,29,09,01,1.90
2019,01,29,09,02,1.90
2019,01,29,09,03,1.90
2019,01,29,09,04,1.80
2019,01,29,09,05,1.80
2019,01,29,09,06,1.80
2019,01,29,09,07,1.80
2019,01,29,09,08,1.80
2019,01,29,09,09,1.80
2019,01,29,09,10,1.80
2019,01,29,09,11,1.80
2019,01,29,09,12,1.80
2019,01,29,09,13,1.80
2019,01,29,09,14,1.80
2019,01,29,09,15,1.70
2019,01,29,09,16,1.80
2019,01,29,09,17,1.80
2019,01,29,09,18,1.80
2019,01,29,09,19,1.80
2019,01,29,09,20,1.80
2019,01,29,09,21,1.80
2019,01,29,09,22,1.80
2019,01,29,09,23,1.80
2019,01,29,09,24,1.80
2019,01,29,09,25,1.80
2019,01,29,09,26,1.80
2019,01,29,09,27,1.80
2019,01,29,09,28,1.80
2019,01,29,09,29,1.80
2019,01,29,09,30,1.80
2019,01,29,09,31,1.80
2019,01,29,09,32,1.80
2019,01,29,09,33,1.80
2019,01,29,09,34,1.90
2019,01,29,09,35,1.80
2019,01,29,09,36,1.90
2019,01,29,09,37,1.90
2019,01,29,09,38,1.90
2019,01,29,09,39,1.90
2019,01,29,09,40,1.90
2019,01,29,09,41,1.90
2019,01,29,09,42,1.90
2019,01,29,09,43,1.90
2019,01,29,09,44,2.00
2019,01,29,09,45,2.00
2019,01,29,09,46,2.00
2019,01,29,09,47,2.00
2019,01,29,09,48,2.10
2019,01,29,09,49,2.10
2019,01,29,09,50,2.10
2019,01,29,09,51,2.10
2019,01,29,09,52,2.20
2019,01,29,09,53,2.20
2019,01,29,09,54,2.20
2019,01,29,09,55,2.20
2019,01,29,09,56,2.30
2019,01,29,09,57,2.30
2019,01,29,09,58,2.30
2019,01,29,09,59,2.30
2019,01,29,10,00,2.30
2019,01,29,10,01,2.40
2019,01,29,10,02,2.40
2019,01,29,10,03,2.40
2019,01,29,10,04,2.50
2019,01,29,10,05,2.50
2019,01,29,10,06,2.50
2019,01,29,10,07,2.60
2019,01,29,10,08,2.60
2019,01,29,10,09,2.60
2019,01,29,10,10,2.60
2019,01,29,10,11,2.70
2019,01,29,10,12,2.70
2019,01,29,10,13,2.70
2019,01,29,10,14,2.80
2019,01,29,10,15,2.80
2019,01,29,10,16,2.80
2019,01,29,10,17,2.80
2019,01,29,10,18,2.90
2019,01,29,10,19,2.90
2019,01,29,10,20,2.90
2019,01,29,10,21,2.90
2019,01,29,10,22,2.90
2019,01,29,10,23,3.00
2019,01,29,10,24,3.00
2019,01,29,10,25,3.00
2019,01,29,10,26,3.10
2019,01,29,10,27,3.10
2019,01,29,10,28,3.10
2019,01,29,10,29,3.10
2019,01,29,10,30,3.20
2019,01,29,10,31,3.20
2019,01,29,10,32,3.30
2019,01,29,10,33,3.40
2019,01,29,10,34,3.40
2019,01,29,10,35,3.50
2019,01,29,10,36,3.50
2019,01,29,10,37,3.60
2019,01,29,10,38,3.60
2019,01,29,10,39,3.70
2019,01,29,10,40,3.70
2019,01,29,10,41,3.70
2019,01,29,10,42,3.80
2019,01,29,10,43,3.80
2019,01,29,10,44,3.80
2019,01,29,10,45,3.90
2019,01,29,10,46,3.90
2019,01,29,10,47,3.90
2019,01,29,10,48,4.00
2019,01,29,10,49,4.00
2019,01,29,10,50,4.00
2019,01,29,10,51,4.00
2019,01,29,10,52,4.00
2019,01,29,10,53,4.10
2019,01,29,10,54,4.10
2019,01,29,10,55,4.10
2019,01,29,10,56,4.10
2019,01,29,10,57,4.10
2019,01,29,10,58,4.10
2019,01,29,10,59,4.10
2019,01,29,11,00,4.20
2019,01,29,11,01,4.20
2019,01,29,11,02,4.20
2019,01,29,11,03,4.20
2019,01,29,11,04,4.20
2019,01,29,11,05,4.20
2019,01,29,11,06,4.30
2019,01,29,11,07,4.30
2019,01,29,11,08,4.30
2019,01,29,11,09,4.30
2019,01,29,11,10,4.30
2019,01,29,11,11,4.40
2019,01,29,11,12,4.40
2019,01,29,11,13,4.40
2019,01,29,11,14,4.50
2019,01,29,11,15,4.50
2019,01,29,11,16,4.50
2019,01,29,11,17,4.60
2019,01,29,11,18,4.60
2019,01,29,11,19,4.60
2019,01,29,11,20,4.60
2019,01,29,11,21,4.60
2019,01,29,11,22,4.70
2019,01,29,11,23,4.70
2019,01,29,11,24,4.70
2019,01,29,11,25,4.70
2019,01,29,11,26,4.70
2019,01,29,11,27,4.80
2019,01,29,11,28,4.80
2019,01,29,11,29,4.80
2019,01,29,11,30,4.80
2019,01,29,11,31,4.80
2019,01,29,11,32,4.90
2019,01,29,11,33,4.90
2019,01,29,11,34,4.90
2019,01,29,11,35,4.90
2019,01,29,11,36,4.90
2019,01,29,11,37,4.90
2019,01,29,11,38,4.90
2019,01,29,11,39,5.00
2019,01,29,11,40,5.00
2019,01,29,11,41,5.10
2019,01,29,11,42,5.10
2019,01,29,11,43,5.10
2019,01,29,11,44,5.10
2019,01,29,11,45,5.10
2019,01,29,11,46,5.10
2019,01,29,11,47,5.10
2019,01,29,11,48,5.10
2019,01,29,11,49,5.20
2019,01,29,11,50,5.10
2019,01,29,11,51,5.20
2019,01,29,11,52,5.20
2019,01,29,11,53,5.20
2019,01,29,11,54,5.30
2019,01,29,11,55,5.30
2019,01,29,11,56,5.30
2019,01,29,11,57,5.40
2019,01,29,11,58,5.40
2019,01,29,11,59,5.40
2019,01,29,12,00,5.40
2019,01,29,12,01,5.50
2019,01,29,12,02,5.40
2019,01,29,12,03,5.40
2019,01,29,12,04,5.40
2019,01,29,12,05,5.40
2019,01,29,12,06,5.40
2019,01,29,12,07,5.40
2019,01,29,12,08,5.40
2019,01,29,12,09,5.50
2019,01,29,12,10,5.50
2019,01,29,12,11,5.50
2019,01,29,12,12,5.60
2019,01,29,12,13,5.60
2019,01,29,12,14,5.60
2019,01,29,12,15,5.70
2019,01,29,12,16,5.70
2019,01,29,12,17,5.70
2019,01,29,12,18,5.80
2019,01,29,12,19,5.90
2019,01,29,12,20,5.90
2019,01,29,12,21,6.00
2019,01,29,12,22,6.00
2019,01,29,12,23,6.10
2019,01,29,12,24,6.10
2019,01,29,12,25,6.10
2019,01,29,12,26,6.10
2019,01,29,12,27,6.10
2019,01,29,12,28,6.10
2019,01,29,12,29,6.00
2019,01,29,12,30,6.00
2019,01,29,12,31,6.00
2019,01,29,12,32,6.00
2019,01,29,12,33,6.00
2019,01,29,12,34,6.00
2019,01,29,12,35,6.10
2019,01,29,12,36,6.00
2019,01,29,12,37,6.10
2019,01,29,12,38,6.10
2019,01,29,12,39,6.10
2019,01,29,12,40,6.10
2019,01,29,12,41,6.10
2019,01,29,12,42,6.10
2019,01,29,12,43,6.10
2019,01,29,12,44,6.10
2019,01,29,12,45,6.10
2019,01,29,12,46,6.20
2019,01,29,12,47,6.20
2019,01,29,12,48,6.20
2019,01,29,12,49,6.20
2019,01,29,12,50,6.30
2019,01,29,12,51,6.30
2019,01,29,12,52,6.30
2019,01,29,12,53,6.40
2019,01,29,12,54,6.40
2019,01,29,12,55,6.40
2019,01,29,12,56,6.40
2019,01,29,12,57,6.40
2019,01,29,12,58,6.40
2019,01,29,12,59,6.40
2019,01,29,13,00,6.50
2019,01,29,13,01,6.50
2019,01,29,13,02,6.50
2019,01,29,13,03,6.50
2019,01,29,13,04,6.50
2019,01,29,13,05,6.50
2019,01,29,13,06,6.50
2019,01,29,13,07,6.40
2019,01,29,13,08,6.40
2019,01,29,13,09,6.40
2019,01,29,13,10,6.50
2019,01,29,13,11,6.50
2019,01,29,13,12,6.50
2019,01,29,13,13,6.40
2019,01,29,13,14,6.40
2019,01,29,13,15,6.30
2019,01,29,13,16,6.30
2019,01,29,13,17,6.30
2019,01,29,13,18,6.30
2019,01,29,13,19,6.20
2019,01,29,13,20,6.20
2019,01,29,13,21,6.20
2019,01,29,13,22,6.20
2019,01,29,13,23,6.10
2019,01,29,13,24,6.10
2019,01,29,13,25,6.10
2019,01,29,13,26,6.10
2019,01,29,13,27,6.10
2019,01,29,13,28,6.20
2019,01,29,13,29,6.10
2019,01,29,13,30,6.20
2019,01,29,13,31,6.20
2019,01,29,13,32,6.30
2019,01,29,13,33,6.30
2019,01,29,13,34,6.30
2019,01,29,13,35,6.30
2019,01,29,13,36,6.30
2019,01,29,13,37,6.30
2019,01,29,13,38,6.30
2019,01,29,13,39,6.30
2019,01,29,13,40,6.30
2019,01,29,13,41,6.30
2019,01,29,13,42,6.30
2019,01,29,13,43,6.30
2019,01,29,13,44,6.30
2019,01,29,13,45,6.30
2019,01,29,13,46,6.30
2019,01,29,13,47,6.30
2019,01,29,13,48,6.30
2019,01,29,13,49,6.30
2019,01,29,13,50,6.30
2019,01,29,13,51,6.30
2019,01,29,13,52,6.40
2019,01,29,13,53,6.40
2019,01,29,13,54,6.40
2019,01,29,13,55,6.40
2019,01,29,13,56,6.40
2019,01,29,13,57,6.50
2019,01,29,13,58,6.70
2019,01,29,13,59,6.80
2019,01,29,14,00,7.00
2019,01,29,14,01,7.10
2019,01,29,14,02,7.20
2019,01,29,14,03,7.20
2019,01,29,14,04,7.10
2019,01,29,14,05,7.10
2019,01,29,14,06,7.10
2019,01,29,14,07,7.20
2019,01,29,14,08,7.30
2019,01,29,14,09,7.40
2019,01,29,14,10,7.60
2019,01,29,14,11,7.70
2019,01,29,14,12,7.80
2019,01,29,14,13,7.90
2019,01,29,14,14,8.00
2019,01,29,14,15,8.10
2019,01,29,14,16,8.20
2019,01,29,14,17,8.20
2019,01,29,14,18,8.10
2019,01,29,14,19,8.10
2019,01,29,14,20,8.10
2019,01,29,14,21,8.10
2019,01,29,14,22,8.10
2019,01,29,14,23,8.10
2019,01,29,14,24,8.20
2019,01,29,14,25,8.20
2019,01,29,14,26,8.30
2019,01,29,14,27,8.30
2019,01,29,14,28,8.30
2019,01,29,14,29,8.30
2019,01,29,14,30,8.20
2019,01,29,14,31,8.20
2019,01,29,14,32,8.20
2019,01,29,14,33,8.20
2019,01,29,14,34,8.30
2019,01,29,14,35,8.40
2019,01,29,14,36,8.40
2019,01,29,14,37,8.50
2019,01,29,14,38,8.50
2019,01,29,14,39,8.50
2019,01,29,14,40,8.40
2019,01,29,14,41,8.40
2019,01,29,14,42,8.40
2019,01,29,14,43,8.30
2019,01,29,14,44,8.40
2019,01,29,14,45,8.40
2019,01,29,14,46,8.50
2019,01,29,14,47,8.60
2019,01,29,14,48,8.60
2019,01,29,14,49,8.70
2019,01,29,14,50,8.70
2019,01,29,14,51,8.70
2019,01,29,14,52,8.80
2019,01,29,14,53,8.80
2019,01,29,14,54,8.80
2019,01,29,14,55,8.80
2019,01,29,14,56,8.70
2019,01,29,14,57,8.60
2019,01,29,14,58,8.50
2019,01,29,14,59,8.40
2019,01,29,15,00,8.30
2019,01,29,15,01,8.10
2019,01,29,15,02,8.00
2019,01,29,15,03,7.90
2019,01,29,15,04,7.80
2019,01,29,15,05,7.80
2019,01,29,15,06,7.80
2019,01,29,15,07,7.90
2019,01,29,15,08,8.00
2019,01,29,15,09,8.10
2019,01,29,15,10,8.10
2019,01,29,15,11,8.20
2019,01,29,15,12,8.20
2019,01,29,15,13,8.20
2019,01,29,15,14,8.20
2019,01,29,15,15,8.30
2019,01,29,15,16,8.40
2019,01,29,15,17,8.50
2019,01,29,15,18,8.60
2019,01,29,15,19,8.60
2019,01,29,15,20,8.70
2019,01,29,15,21,8.80
2019,01,29,15,22,8.80
2019,01,29,15,23,8.90
2019,01,29,15,24,8.90
2019,01,29,15,25,9.00
2019,01,29,15,26,9.10
2019,01,29,15,27,9.10
2019,01,29,15,28,9.10
2019,01,29,15,29,9.20
2019,01,29,15,30,9.20
2019,01,29,15,31,9.20
2019,01,29,15,32,9.20
2019,01,29,15,33,9.20
2019,01,29,15,34,9.20
2019,01,29,15,35,9.20
2019,01,29,15,36,9.20
2019,01,29,15,37,9.20
2019,01,29,15,38,9.30
2019,01,29,15,39,9.30
2019,01,29,15,40,9.30
2019,01,29,15,41,9.30
2019,01,29,15,42,9.30
2019,01,29,15,43,9.30
2019,01,29,15,44,9.40
2019,01,29,15,45,9.40
2019,01,29,15,46,9.30
2019,01,29,15,47,9.30
2019,01,29,15,48,9.30
2019,01,29,15,49,9.20
2019,01,29,15,50,9.20
2019,01,29,15,51,9.10
2019,01,29,15,52,9.10
2019,01,29,15,53,9.10
2019,01,29,15,54,9.00
2019,01,29,15,55,9.00
2019,01,29,15,56,8.90
2019,01,29,15,57,8.80
2019,01,29,15,58,8.80
2019,01,29,15,59,8.70
2019,01,29,16,00,8.70
2019,01,29,16,01,8.70
2019,01,29,16,02,8.80
2019,01,29,16,03,8.80
2019,01,29,16,04,8.80
2019,01,29,16,05,8.80
2019,01,29,16,06,8.80
2019,01,29,16,07,8.90
2019,01,29,16,08,8.90
2019,01,29,16,09,8.90
2019,01,29,16,10,8.90
2019,01,29,16,11,8.90
2019,01,29,16,12,8.90
2019,01,29,16,13,8.90
2019,01,29,16,14,8.90
2019,01,29,16,15,8.90
2019,01,29,16,16,8.90
2019,01,29,16,17,8.90
2019,01,29,16,18,8.90
2019,01,29,16,19,8.90
2019,01,29,16,20,8.90
2019,01,29,16,21,8.90
2019,01,29,16,22,8.90
2019,01,29,16,23,8.80
2019,01,29,16,24,8.80
2019,01,29,16,25,8.70
2019,01,29,16,26,8.70
2019,01,29,16,27,8.60
2019,01,29,16,28,8.50
2019,01,29,16,29,8.40
2019,01,29,16,30,8.30
2019,01,29,16,31,8.20
2019,01,29,16,32,8.10
2019,01,29,16,33,8.00
2019,01,29,16,34,7.80
2019,01,29,16,35,7.70
2019,01,29,16,36,7.60
2019,01,29,16,37,7.50
2019,01,29,16,38,7.40
2019,01,29,16,39,7.30
2019,01,29,16,40,7.30
2019,01,29,16,41,7.20
2019,01,29,16,42,7.10
2019,01,29,16,43,7.00
2019,01,29,16,44,6.90
2019,01,29,16,45,6.90
2019,01,29,16,46,6.80
2019,01,29,16,47,6.70
2019,01,29,16,48,6.60
2019,01,29,16,49,6.60
2019,01,29,16,50,6.40
2019,01,29,16,51,6.40
2019,01,29,16,52,6.30
2019,01,29,16,53,6.20
2019,01,29,16,54,6.10
2019,01,29,16,55,6.00
2019,01,29,16,56,5.90
2019,01,29,16,57,5.80
2019,01,29,16,58,5.70
2019,01,29,16,59,5.70
2019,01,29,17,00,5.60
2019,01,29,17,01,5.50
2019,01,29,17,02,5.40
2019,01,29,17,03,5.40
2019,01,29,17,04,5.30
2019,01,29,17,05,5.30
2019,01,29,17,06,5.20
2019,01,29,17,07,5.10
2019,01,29,17,08,5.10
2019,01,29,17,09,5.00
2019,01,29,17,10,4.90
2019,01,29,17,11,4.90
2019,01,29,17,12,4.80
2019,01,29,17,13,4.80
2019,01,29,17,14,4.70
2019,01,29,17,15,4.70
2019,01,29,17,16,4.60
2019,01,29,17,17,4.60
2019,01,29,17,18,4.60
2019,01,29,17,19,4.50
2019,01,29,17,20,4.50
2019,01,29,17,21,4.50
2019,01,29,17,22,4.40
2019,01,29,17,23,4.40
2019,01,29,17,24,4.30
2019,01,29,17,25,4.30
2019,01,29,17,26,4.30
2019,01,29,17,27,4.30
2019,01,29,17,28,4.20
2019,01,29,17,29,4.20
2019,01,29,17,30,4.20
2019,01,29,17,31,4.10
2019,01,29,17,32,4.10
2019,01,29,17,33,4.10
2019,01,29,17,34,4.10
2019,01,29,17,35,4.00
2019,01,29,17,36,4.00
2019,01,29,17,37,4.00
2019,01,29,17,38,4.00
2019,01,29,17,39,4.00
2019,01,29,17,40,3.90
2019,01,29,17,41,3.90
2019,01,29,17,42,3.90
2019,01,29,17,43,3.90
2019,01,29,17,44,3.90
2019,01,29,17,45,3.80
2019,01,29,17,46,3.80
2019,01,29,17,47,3.80
2019,01,29,17,48,3.80
2019,01,29,17,49,3.80
2019,01,29,17,50,3.80
2019,01,29,17,51,3.80
2019,01,29,17,52,3.80
2019,01,29,17,53,3.70
2019,01,29,17,54,3.70
2019,01,29,17,55,3.70
2019,01,29,17,56,3.70
2019,01,29,17,57,3.70
2019,01,29,17,58,3.70
2019,01,29,17,59,3.60
2019,01,29,18,00,3.60
2019,01,29,18,01,3.60
2019,01,29,18,02,3.60
2019,01,29,18,03,3.60
2019,01,29,18,04,3.60
2019,01,29,18,05,3.60
2019,01,29,18,06,3.60